Location: Mentone
(34.5413°N, 85.5351°W)
Time: 15:29:41
(UTC-05:00)

ATLAS 5 CENTAUR R/B - Visible Passes

Search period start: 28 September 2016 00:00
Search period end: 08 October 2016 00:00
Orbit: 652 x 1008 km, 63.4° (Epoch: 27 September)

Date Brightness Start Highest point End Pass type
(mag) Time Alt. Az. Time Alt. Az. Time Alt. Az.
28 Sep 5.2 02:22:13 11° NE 02:22:13 11° NE 02:23:49 10° ENE visible
28 Sep 2.9 04:04:00 24° NNW 04:07:47 59° ENE 04:14:11 10° SE visible
28 Sep 3.6 05:47:30 10° WNW 05:52:10 22° WSW 05:56:59 10° SSW visible
28 Sep 1.8 18:48:40 10° SSW 18:53:19 70° ESE 18:58:20 10° NE visible
28 Sep 4.7 20:35:51 10° WNW 20:38:36 15° NW 20:41:29 10° N visible
29 Sep 3.0 03:48:48 56° NE 03:48:51 56° NE 03:55:15 10° SE visible
29 Sep 3.5 05:30:34 18° WNW 05:33:18 24° WSW 05:38:18 10° SSW visible
29 Sep 4.6 20:16:42 10° W 20:19:38 16° NW 20:22:43 10° N visible
30 Sep 4.1 03:33:20 27° ESE 03:33:20 27° ESE 03:36:16 10° SE visible
30 Sep 3.5 05:15:05 25° WSW 05:15:05 25° WSW 05:19:34 10° SSW visible
30 Sep 4.6 19:57:35 10° W 20:00:41 17° NW 20:03:57 10° N visible
01 Oct 4.2 04:59:17 16° SSW 04:59:17 16° SSW 05:00:51 10° SSW visible
01 Oct 4.5 19:38:28 10° W 19:41:44 18° NW 19:45:10 10° N visible
02 Oct 4.4 19:19:22 10° W 19:22:47 19° NW 19:26:22 10° N visible
03 Oct 4.3 19:00:17 10° W 19:03:49 20° NW 19:07:34 10° N visible
04 Oct 4.3 18:41:13 10° W 18:44:52 21° NW 18:48:45 10° N visible
